Location: Ch�risy
(50.2331°N, 2.9131°E)
Time: 02:04:15
(UTC+00:00)

GENESIS II - Pass Details

Date: 17 January 2021
Orbit: 496 x 529 km, 64.5° (Epoch: 28 February)

Event Time Altitude Azimuth Distance (km) Brightness Sun altitude
Rises 18:19:31 0° 218° (SW) 2,660 8.6 -19.0°
Reaches altitude 10° 18:21:41 10° 218° (SW) 1,775 7.6 -19.3°
Maximum altitude 18:25:41 87° 128° (SE) 537 4.1 -19.9°
Enters shadow 18:26:31 55° 44° (NE) 643 4.3 -20.1°
